Niagara Falls, NY

1:47 AM EST on November 20, 2017 (GMT -0500)
Niagara Falls International

Weather History for KIAG - April, 2013

Change the Weather History Date:

Tuesday, April 9, 2013

  Actual Average Record
Temperature  
Mean Temperature 50 °F -  
Max Temperature 57 °F 51 °F 73 °F (1991)
Min Temperature 44 °F 32 °F 17 °F (1997)
Degree Days  
Heating Degree Days 14    
Moisture  
Dew Point 42 °F    
Average Humidity 82    
Maximum Humidity 93    
Minimum Humidity 55    
Precipitation  
Precipitation 0.64 in - - ()
Sea Level Pressure  
Sea Level Pressure 29.99 in    
Wind  
Wind Speed 11 mph (West)    
Max Wind Speed 21 mph    
Max Gust Speed 28 mph    
Visibility 7 miles    
Events Rain , Thunderstorm    
Averages and records for this station are not official NWS values.
T = Trace of Precipitation, MM = Missing Value Source: NWS Daily Summary

Daily Weather History Graph

Daily Weather History Graph

Search for Another Location

Airport or City:

Trip Planner

Search our weather history database for the weather conditions in past years. The results will help you decide how hot, cold, wet, or windy it might be!

Date:

Astronomy

Apr. 09, 2013 Rise Set
Actual Time 6:43 AM EDT 7:51 PM EDT
Civil Twilight 6:14 AM EDT 8:21 PM EDT
Nautical Twilight 5:39 AM EDT 8:56 PM EDT
Astronomical Twilight 5:02 AM EDT 9:32 PM EDT
Moon 6:05 AM EDT (4/9) 7:25 PM EDT (4/9)
Length of Visible Light 14h 06m
Length of Day
13h 08m
Waning Crescent, 1% of the Moon is Illuminated
Apr 9
Waning Crescent
Apr 10
New
Apr 18
First Quarter
Apr 25
Full
May 2
Last Quarter

Hourly Weather History & Observations

Time (EDT) Temp. Windchill Dew Point Humidity Pressure Visibility Wind Dir Wind Speed Gust Speed Precip Events Conditions
12:53 AM 48.0 °F - 44.1 °F 86% 29.83 in 7.0 mi West 12.7 mph - 0.00 in   Mostly Cloudy
1:17 AM 46.4 °F 40.4 °F 42.8 °F 87% 29.83 in 7.0 mi West 13.8 mph - N/A   Mostly Cloudy
1:53 AM 48.9 °F - 44.1 °F 83% 29.87 in 6.0 mi West 20.7 mph 25.3 mph N/A   Haze
2:14 AM 48.2 °F - 44.6 °F 87% 29.87 in 6.0 mi West 18.4 mph 27.6 mph 0.01 in   Overcast
2:53 AM 46.9 °F - 43.0 °F 86% 29.91 in 6.0 mi WSW 17.3 mph - 0.01 in   Overcast
3:28 AM 48.2 °F - 42.8 °F 82% 29.91 in 7.0 mi WSW 15.0 mph - N/A   Overcast
3:53 AM 48.0 °F - 43.0 °F 83% 29.94 in 8.0 mi WSW 17.3 mph 23.0 mph N/A   Overcast
4:18 AM 46.4 °F 39.8 °F 42.8 °F 87% 29.95 in 10.0 mi West 16.1 mph 27.6 mph N/A   Overcast
4:53 AM 46.0 °F 40.2 °F 41.0 °F 83% 29.99 in 10.0 mi West 12.7 mph 26.5 mph N/A   Overcast
5:13 AM 46.4 °F 40.4 °F 41.0 °F 81% 29.98 in 10.0 mi West 13.8 mph - N/A   Overcast
5:53 AM 46.0 °F 40.2 °F 41.0 °F 83% 30.04 in 10.0 mi West 12.7 mph 23.0 mph N/A   Overcast
6:53 AM 45.0 °F 40.1 °F 39.9 °F 82% 30.08 in - WNW 9.2 mph - N/A   Overcast
7:05 AM 44.6 °F 38.4 °F 39.2 °F 81% 30.06 in 7.0 mi WNW 12.7 mph - N/A   Overcast
7:15 AM 44.6 °F 39.7 °F 39.2 °F 81% 30.07 in 7.0 mi West 9.2 mph - N/A   Mostly Cloudy
7:53 AM 44.1 °F 39.5 °F 39.9 °F 85% 30.11 in 10.0 mi WNW 8.1 mph - N/A   Mostly Cloudy
8:53 AM 46.0 °F 43.1 °F 39.0 °F 76% 30.12 in 10.0 mi NW 5.8 mph - N/A   Mostly Cloudy
9:17 AM 46.4 °F 42.9 °F 39.2 °F 76% 30.11 in 10.0 mi NW 6.9 mph - N/A   Mostly Cloudy
9:53 AM 46.9 °F - 39.0 °F 74% 30.13 in 10.0 mi WNW 5.8 mph - N/A   Overcast
10:36 AM 48.2 °F - 39.2 °F 71% 30.11 in 10.0 mi Variable 5.8 mph - N/A   Mostly Cloudy
10:53 AM 48.9 °F - 39.9 °F 71% 30.13 in 10.0 mi South 4.6 mph - N/A   Mostly Cloudy
11:53 AM 50.0 °F - 41.0 °F 71% 30.12 in 10.0 mi WSW 5.8 mph - N/A   Mostly Cloudy
12:41 PM 50.0 °F - 41.0 °F 71% 30.07 in 10.0 mi SSW 8.1 mph - N/A   Mostly Cloudy
12:53 PM 51.1 °F - 41.0 °F 68% 30.08 in 10.0 mi SSE 5.8 mph - N/A   Mostly Cloudy
1:53 PM 54.0 °F - 42.1 °F 64% 30.06 in 10.0 mi Variable 5.8 mph - N/A   Scattered Clouds
2:53 PM 55.0 °F - 42.1 °F 62% 30.04 in 10.0 mi SSW 4.6 mph - N/A   Overcast
3:53 PM 57.0 °F - 41.0 °F 55% 30.01 in 10.0 mi Calm Calm - N/A   Overcast
4:07 PM 57.2 °F - 41.0 °F 55% 29.99 in 10.0 mi Calm Calm - 0.00 in Rain Light Rain
4:53 PM 55.0 °F - 45.0 °F 69% 30.02 in 10.0 mi North 5.8 mph - 0.01 in Rain Light Rain
5:53 PM 48.0 °F - 44.1 °F 86% 29.99 in 10.0 mi ENE 10.4 mph - 0.00 in Rain Light Rain
6:53 PM 46.0 °F 39.9 °F 43.0 °F 89% 30.01 in 3.0 mi NNE 13.8 mph - 0.09 in Rain Rain
7:34 PM 44.6 °F 40.7 °F 42.8 °F 93% 29.97 in 2.0 mi East 6.9 mph - 0.11 in Rain Heavy Rain
7:53 PM 45.0 °F 39.7 °F 43.0 °F 93% 29.96 in 2.0 mi East 10.4 mph - 0.14 in Rain Light Rain
8:21 PM 46.4 °F 42.4 °F 44.6 °F 93% 29.93 in 2.5 mi ENE 8.1 mph - 0.02 in Rain Light Rain
8:53 PM 46.0 °F 41.9 °F 43.0 °F 89% 29.97 in 2.5 mi SE 8.1 mph - 0.07 in Rain Rain
8:59 PM 46.4 °F 42.9 °F 44.6 °F 93% 29.94 in 2.5 mi ESE 6.9 mph - 0.02 in Rain , Thunderstorm Thunderstorms and Rain
9:45 PM 46.4 °F 41.1 °F 44.6 °F 93% 29.92 in 3.0 mi SE 11.5 mph - 0.21 in Rain , Thunderstorm Thunderstorms and Rain
9:53 PM 46.0 °F 43.1 °F 44.1 °F 93% 29.95 in 4.0 mi ESE 5.8 mph 16.1 mph 0.23 in Rain , Thunderstorm Thunderstorms and Rain
10:14 PM 46.4 °F 44.3 °F 44.6 °F 93% 29.92 in 5.0 mi SE 4.6 mph - 0.08 in Rain Light Rain
10:37 PM 46.4 °F - 44.6 °F 93% 29.92 in 5.0 mi Calm Calm - 0.08 in Rain Light Rain
10:53 PM 46.9 °F - 45.0 °F 93% 29.95 in 5.0 mi North 4.6 mph - 0.08 in Rain Light Rain
11:48 PM 46.4 °F 42.4 °F 44.6 °F 93% 29.95 in - North 8.1 mph - N/A Rain Light Rain
11:53 PM 46.0 °F 40.6 °F 44.1 °F 93% 29.96 in - NNE 11.5 mph - 0.01 in Rain Light Rain